CW3577 Weather Reports


Display with metric or nautical units.
time (UTC)temp
F
wind
direction
speed
MPH
gust
MPH
rain 1hr
in
rain 24hr
in
rain mn
in
humidity
%
barometer
mb
20260905133020 67 327 1.0 8.0 0.00 0.00 0.00 81 1010.6
20260905131558 67 345 2.0 8.0 0.00 0.00 0.00 82 1010.4
20260905130012 66 360 2.0 5.0 0.00 0.00 0.00 83 1010.3
20260905124545 66 344 2.0 5.0 0.00 0.00 0.00 84 1010.3
20260905123003 65 13 2.0 8.0 0.00 0.00 0.00 85 1010.0
20260905121550 64 344 2.0 6.0 0.00 0.00 0.00 87 1009.8
20260905120007 63 313 2.0 4.0 0.00 0.00 0.00 92 1009.9
20260905114553 61 313 0.0 2.0 0.00 0.00 0.00 94 1009.6
20260905113109 61 5 0.0 3.0 0.00 0.00 0.00 94 1009.6
20260905111536 60 306 2.0 5.0 0.00 0.00 0.00 95 1009.5
20260905110101 59 24 1.0 3.0 0.00 0.00 0.00 94 1009.4
20260905104520 58 47 0.0 2.0 0.00 0.00 0.00 94 1009.4
20260905103058 58 68 0.0 2.0 0.00 0.00 0.00 94 1009.3
20260905101517 58 68 0.0 1.0 0.00 0.00 0.00 94 1009.2
20260905100117 58 68 0.0 3.0 0.00 0.00 0.00 94 1009.2
20260905094510 57 292 0.0 1.0 0.00 0.00 0.00 94 1009.0
20260905093056 57 292 0.0 1.0 0.00 0.00 0.00 93 1009.0
20260905091504 57 292 0.0 0.0 0.00 0.00 0.00 93 1009.0
20260905090113 57 292 0.0 1.0 0.00 0.00 0.00 93 1009.0
20260905084613 57 292 0.0 1.0 0.00 0.00 0.00 93 1008.8
20260905083018 57 292 0.0 1.0 0.00 0.00 0.00 93 1008.8
20260905081533 57 292 0.0 2.0 0.00 0.00 0.00 93 1008.8
20260905080005 57 292 0.0 0.0 0.00 0.00 0.00 92 1008.8
20260905074527 57 292 0.0 1.0 0.00 0.00 0.00 92 1008.9
20260905073102 58 292 0.0 1.0 0.00 0.00 0.00 92 1008.9
20260905071521 58 292 0.0 1.0 0.00 0.00 0.00 92 1009.0
20260905070105 58 292 0.0 0.0 0.00 0.00 0.00 92 1009.0
20260905064512 58 292 0.0 1.0 0.00 0.00 0.00 92 1009.2
20260905063057 59 292 0.0 1.0 0.00 0.00 0.00 92 1009.2
20260905061515 59 292 0.0 2.0 0.00 0.00 0.00 92 1009.4
20260905060052 59 292 0.0 0.0 0.00 0.00 0.00 91 1009.6
20260905054501 59 292 0.0 1.0 0.00 0.00 0.00 91 1009.6
20260905053036 60 292 0.0 1.0 0.00 0.00 0.00 90 1009.7
20260905051522 60 292 0.0 0.0 0.00 0.00 0.00 90 1009.6
20260905050035 60 292 0.0 1.0 0.00 0.00 0.00 89 1009.7
20260905044503 61 292 0.0 1.0 0.00 0.00 0.00 89 1009.7
20260905043026 61 292 0.0 1.0 0.00 0.00 0.00 88 1009.6
20260905041601 61 292 1.0 2.0 0.00 0.00 0.00 88 1009.4
20260905040019 62 292 0.0 2.0 0.00 0.00 0.00 87 1009.6
20260905034501 62 290 0.0 1.0 0.00 0.00 0.00 86 1009.4
20260905033013 63 290 0.0 1.0 0.00 0.00 0.00 85 1009.6
20260905031600 63 290 0.0 0.0 0.00 0.00 0.00 84 1009.6
20260905030003 64 290 0.0 0.0 0.00 0.00 0.00 84 1009.7
20260905024547 64 290 0.0 0.0 0.00 0.00 0.00 82 1009.7
20260905023101 65 290 0.0 0.0 0.00 0.00 0.00 81 1009.8
20260905021536 65 290 0.0 1.0 0.00 0.00 0.00 80 1009.8
20260905020059 66 290 0.0 1.0 0.00 0.00 0.00 79 1009.9
20260905014528 66 290 0.0 2.0 0.00 0.00 0.00 77 1009.9
20260905013115 67 290 0.0 2.0 0.00 0.00 0.00 75 1010.0
20260905011502 69 290 0.0 1.0 0.00 0.00 0.00 72 1010.1
20260905010040 70 290 0.0 2.0 0.00 0.00 0.00 70 1009.9
20260905004627 71 290 0.0 1.0 0.00 0.00 0.00 65 1009.7
20260905003008 72 344 0.0 2.0 0.00 0.00 0.00 63 1009.8
20260905001551 73 311 1.0 8.0 0.00 0.00 0.00 62 1009.7
20260905000105 73 255 2.0 5.0 0.00 0.00 0.00 61 1009.6
20260904234535 74 350 2.0 8.0 0.00 0.00 0.00 59 1009.5
20260904233101 75 324 5.0 10.0 0.00 0.00 0.00 57 1009.2
20260904231521 76 340 2.0 9.0 0.00 0.00 0.00 55 1009.0
20260904224506 77 323 3.0 9.0 0.00 0.00 0.00 55 1008.9
20260904223054 78 311 2.0 9.0 0.00 0.00 0.00 53 1008.8
20260904221513 79 313 5.0 11.0 0.00 0.00 0.00 52 1008.8
20260904220058 80 296 4.0 10.0 0.00 0.00 0.00 52 1008.8
20260904214504 81 284 2.0 8.0 0.00 0.00 0.00 51 1008.7
20260904213051 81 259 2.0 10.0 0.00 0.00 0.00 51 1008.8
20260904211509 81 344 3.0 8.0 0.00 0.00 0.00 50 1008.8
20260904210055 82 348 4.0 9.0 0.00 0.00 0.00 51 1008.8
20260904204503 81 348 2.0 9.0 0.00 0.00 0.00 53 1008.6
20260904203038 81 333 4.0 9.0 0.00 0.00 0.00 53 1008.8
20260904201602 82 308 4.0 12.0 0.00 0.00 0.00 50 1008.9
20260904200034 81 323 7.0 16.0 0.00 0.00 0.00 48 1008.7
20260904194506 82 270 6.0 15.0 0.00 0.00 0.00 46 1008.7
20260904193029 84 350 5.0 18.0 0.00 0.00 0.00 42 1008.5
20260904191510 84 316 5.0 11.0 0.00 0.00 0.00 43 1008.5
20260904190033 85 306 5.0 13.0 0.00 0.00 0.00 42 1008.7
20260904184613 84 272 4.0 13.0 0.00 0.00 0.00 46 1008.8
20260904183001 84 285 5.0 17.0 0.00 0.00 0.00 46 1008.9
20260904181538 84 351 7.0 14.0 0.00 0.00 0.00 47 1008.8
20260904180059 82 319 6.0 16.0 0.00 0.00 0.00 48 1009.0
20260904174517 85 355 4.0 11.0 0.00 0.00 0.00 48 1008.9
20260904173101 84 302 3.0 11.0 0.00 0.00 0.00 48 1008.9
20260904171543 83 336 2.0 12.0 0.00 0.00 0.00 53 1009.0
20260904164514 81 334 2.0 11.0 0.00 0.00 0.00 56 1009.3
20260904163059 80 304 3.0 10.0 0.00 0.00 0.00 66 1009.4
20260904161511 81 278 4.0 12.0 0.00 0.00 0.00 59 1009.3
20260904160053 81 222 2.0 10.0 0.00 0.00 0.00 62 1009.6
20260904154503 80 23 3.0 11.0 0.00 0.00 0.00 62 1009.9
20260904153055 81 337 2.0 6.0 0.00 0.00 0.00 64 1010.0
20260904151505 79 288 5.0 12.0 0.00 0.00 0.00 64 1010.1
20260904150051 80 340 2.0 12.0 0.00 0.00 0.00 63 1010.1
20260904144509 79 27 3.0 9.0 0.00 0.00 0.00 67 1010.2
20260904143043 79 300 3.0 9.0 0.00 0.00 0.00 66 1010.3
20260904141502 78 309 3.0 8.0 0.00 0.00 0.00 69 1010.4
20260904140046 77 348 4.0 8.0 0.00 0.00 0.00 71 1010.5
20260904134504 75 303 2.0 5.0 0.00 0.00 0.00 78 1010.5